[[{"header":{"parameterUnit":"m.s-1","parameterCategory":1,"la1":30.2991,"la2":30.254,"lo1":-89.0895,"lo2":-89.0444,"dy":0.0017,"dx":0.0017,"nx":28,"ny":28,"refTime":"2024-04-21T09:00:00:Z","depth":0,"parameterNumber":2,"parameterNumberName":"U-component_of_WINDS"},"data":[0,0,0,0,0,0,0,0,0,0,0,0,0,0,0,0,0,0,0,0,0,0,0,0,0,0,0,0,0,0,0,0,0,0,0,0,0,0,0,0,0,0,0,0,0,0,0,0,0,0,0,0,0,0,0,0,0,0,0.844,0.8439,0,0.8336,0.8334,0.8333,0.8288,0.8288,0.8288,0.8289,0.8175,0.8172,0.8169,0,0,0,0,0,0,0,0,0,0,0,0,0,0.8596,0.8593,0.8441,0.8439,0.8438,0.8336,0.8334,0.8333,0.8288,0.8288,0.8289,0.8289,0.8176,0.8172,0.8168,0,0,0,0,0,0,0,0,0,0,0,0,0,0.8513,0.8592,0.8441,0.8403,0.8399,0.8336,0.8334,0.8333,0.8288,0.8288,0.8289,0.8289,0.8177,0.8173,0.8168,0.8132,0,0,0.8153,0.8151,0,0,0,0,0,0,0,0,0.8518,0.8508,0.841,0.8406,0.8401,0.8325,0.8347,0.8265,0.8288,0.833,0.8289,0.8289,0.8224,0.8216,0.8195,0.8127,0.8122,0.8153,0.815,0.8148,0.8146,0,0,0,0,0,0,0,0.8524,0.8512,0.8399,0.8409,0.8403,0.839,0.8378,0.8332,0.8277,0.8326,0.8323,0.8311,0.8222,0.82,0.8192,0.8121,0.8153,0.8149,0.8146,0.8144,0.8017,0.8017,0,0,0,0,0,0,0.8537,0.8517,0.8402,0.8396,0.8462,0.8387,0.8374,0.8349,0.8277,0.8266,0.8311,0.831,0.8208,0.8198,0.8188,0.8141,0.8148,0.8143,0.8141,0.8018,0.8017,0.8017,0,0,0,0,0,0,0.854,0.8527,0.8406,0.8455,0.8439,0.8384,0.8356,0.8347,0.8325,0.8266,0.8255,0.8299,0.8208,0.8195,0.8147,0.8137,0.8141,0.8137,0.8019,0.8018,0.8017,0.8048,0,0,0,0,0,0,0.8545,0.8528,0.8516,0.8456,0.8437,0.8369,0.8356,0.8345,0.8318,0.8315,0.8252,0.8242,0.8207,0.8154,0.8142,0.813,0.8133,0.8019,0.8018,0.8017,0.8048,0.8049,0.8049,0,0,0,0,0,0.855,0.8527,0.8515,0.8502,0.842,0.8368,0.8357,0.832,0.8317,0.8303,0.8265,0.8244,0.814,0.815,0.8136,0.8122,0.802,0.8018,0.8017,0.8047,0.8049,0.8049,0,0,0,0,0,0,0.8585,0.8519,0.8505,0.8462,0.8421,0.8361,0.8342,0.8322,0.828,0.8279,0.8232,0.8218,0.8174,0.8143,0.8155,0.8084,0.8078,0.8074,0.8106,0.8106,0.8107,0.8115,0.8129,0,0,0,0,0,0.8588,0.8554,0.8497,0.8464,0.8445,0.8397,0.8373,0.8348,0.8304,0.8286,0.8244,0.82,0.8157,0.813,0.8088,0.8044,0.8028,0.8027,0.8028,0.8029,0.8026,0.7999,0.7998,0.8013,0.8013,0.8013,0,0,0.8593,0.8553,0.8534,0.847,0.8436,0.84,0.8383,0.8345,0.8317,0.8279,0.8232,0.82,0.8147,0.8101,0.8079,0.8074,0.8018,0.8028,0.8029,0.8025,0.7998,0.7997,0.7995,0.8013,0.8013,0.8013,0,0,0.8584,0.8551,0.852,0.8487,0.8436,0.8404,0.8397,0.834,0.8318,0.827,0.8241,0.8206,0.8134,0.8098,0.807,0.8048,0.8027,0.8036,0.8039,0.8014,0.8013,0.8011,0.8003,0.8,0.8033,0.8033,0.8033,0,0.8596,0.8542,0.8506,0.847,0.8443,0.8409,0.8377,0.8345,0.8282,0.8263,0.826,0.8169,0.8131,0.8076,0.8071,0.805,0.8039,0.8042,0.8016,0.8014,0.8013,0.8004,0.8001,0.8034,0.8034,0.8034,0.8034,0,0.8559,0.8522,0.8503,0.8446,0.8416,0.8382,0.8339,0.8313,0.8291,0.8259,0.8211,0.8165,0.8112,0.8097,0.8074,0.8039,0.8037,0.8026,0.8018,0.8013,0.8004,0.8,0.8036,0.8036,0.8035,0.8035,0,0,0.8568,0.8492,0.8486,0.8459,0.8401,0.8371,0.8335,0.8286,0.8264,0.8222,0.8189,0.813,0.8119,0.8087,0.806,0.8038,0.8023,0.8029,0.8027,0.8029,0.798,0.7988,0.7985,0.8009,0.8008,0.8008,0.7984,0,0.855,0.8486,0.8453,0.8402,0.8367,0.8335,0.8303,0.8263,0.8233,0.8197,0.8163,0.8121,0.811,0.8091,0.8068,0.803,0.8012,0.8031,0.7976,0.7975,0.799,0.798,0.7989,0.7968,0.798,0.7979,0.7979,0,0.852,0.8481,0.8428,0.8375,0.8358,0.8331,0.8283,0.825,0.8203,0.8183,0.8149,0.8122,0.8081,0.8078,0.802,0.8034,0.8009,0.7987,0.7986,0.7978,0.7976,0.7971,0.7961,0.7958,0.7973,0.7973,0.7974,0,0.8531,0.8464,0.8424,0.8402,0.8339,0.8321,0.8293,0.8247,0.822,0.8178,0.8159,0.8112,0.8086,0.8049,0.801,0.8012,0.7956,0.795,0.7936,0.7937,0.7924,0.7925,0.7909,0.791,0.7911,0.7911,0.7911,0,0.8514,0.8482,0.8428,0.8403,0.8366,0.8328,0.8292,0.8261,0.8221,0.8188,0.8157,0.8126,0.8077,0.804,0.8009,0.7965,0.7953,0.7934,0.7926,0.7936,0.7939,0.7919,0.7919,0.791,0.791,0.791,0.791,0,0.8518,0.8481,0.8435,0.838,0.8365,0.834,0.8292,0.8265,0.8234,0.8193,0.8181,0.8131,0.8086,0.8044,0.7982,0.7962,0.7917,0.7907,0.7933,0.7929,0.7917,0.7918,0.7886,0.7879,0.7887,0.7887,0.7887,0,0.851,0.8485,0.8428,0.8405,0.8378,0.8341,0.8314,0.8274,0.8247,0.8193,0.8172,0.8125,0.8086,0.8014,0.7971,0.7924,0.7912,0.7904,0.7905,0.7916,0.7911,0.7912,0.7909,0.7904,0.7905,0.7905,0.7905,0,0.8497,0.848,0.8443,0.84,0.8369,0.8332,0.8294,0.8276,0.8229,0.82,0.8154,0.8124,0.8063,0.8015,0.7964,0.7933,0.791,0.7905,0.7899,0.7909,0.7925,0.7915,0.7934,0.7906,0.7906,0.7906,0.7906,0.7906,0.8494,0.847,0.8427,0.8386,0.8354,0.832,0.8292,0.8259,0.8221,0.8169,0.8148,0.8102,0.8055,0.7984,0.7954,0.7915,0.791,0.7902,0.79,0.7898,0.7899,0.7932,0.7906,0.7906,0.7906,0.7906,0.7906,0,0.8479,0.845,0.8413,0.8362,0.833,0.8315,0.8272,0.8246,0.8206,0.8166,0.8128,0.8075,0.803,0.7984,0.7936,0.7914,0.7902,0.7902,0.7903,0.7896,0.7907,0.7917,0.7913,0.7913,0.7913,0.7913,0.7913,0.7913,0.8467,0.8427,0.8405,0.8348,0.8318,0.8274,0.8251,0.8218,0.8186,0.813,0.8093,0.8064,0.8021,0.7969,0.7926,0.7914,0.7897,0.79,0.7884,0.7895,0.7895,0.7895,0.7904,0.7897,0.7897,0.7876,0.7876,0.7875]},{"header":{"parameterUnit":"m.s-1","parameterCategory":1,"la1":30.2991,"la2":30.254,"lo1":-89.0895,"lo2":-89.0444,"dy":0.0017,"dx":0.0017,"nx":28,"ny":28,"refTime":"2024-04-21T09:00:00:Z","depth":0,"parameterNumber":3,"parameterNumberName":"V-component_of_WINDS"},"data":[0,0,0,0,0,0,0,0,0,0,0,0,0,0,0,0,0,0,0,0,0,0,0,0,0,0,0,0,0,0,0,0,0,0,0,0,0,0,0,0,0,0,0,0,0,0,0,0,0,0,0,0,0,0,0,0,0,0,-7.1279,-7.1279,0,-7.1333,-7.1333,-7.1334,-7.1193,-7.1189,-7.1184,-7.118,-7.1231,-7.1237,-7.1242,0,0,0,0,0,0,0,0,0,0,0,0,0,-7.1051,-7.1056,-7.1278,-7.1279,-7.128,-7.1333,-7.1333,-7.1334,-7.1194,-7.1189,-7.1183,-7.1178,-7.123,-7.1236,-7.1243,0,0,0,0,0,0,0,0,0,0,0,0,0,-7.1132,-7.1057,-7.1278,-7.1216,-7.1211,-7.1332,-7.1333,-7.1334,-7.1195,-7.1189,-7.1182,-7.1176,-7.1228,-7.1235,-7.1244,-7.1426,0,0,-7.1269,-7.1272,0,0,0,0,0,0,0,0,-7.1127,-7.114,-7.1225,-7.1221,-7.1216,-7.125,-7.1271,-7.1365,-7.1197,-7.1201,-7.118,-7.1173,-7.1243,-7.1249,-7.1273,-7.1428,-7.143,-7.1269,-7.1274,-7.1278,-7.128,0,0,0,0,0,0,0,-7.1122,-7.1137,-7.13,-7.1226,-7.1221,-7.1185,-7.1189,-7.1289,-7.1258,-7.12,-7.119,-7.1199,-7.1239,-7.1266,-7.1274,-7.1431,-7.1269,-7.1276,-7.1281,-7.1284,-7.1739,-7.1746,0,0,0,0,0,0,-7.1125,-7.1133,-7.1298,-7.1301,-7.1154,-7.1194,-7.1199,-7.1245,-7.1256,-7.1252,-7.1204,-7.1192,-7.1255,-7.1264,-7.1275,-7.149,-7.1278,-7.1285,-7.129,-7.1732,-7.1741,-7.1748,0,0,0,0,0,0,-7.112,-7.1141,-7.1296,-7.1215,-7.1232,-7.1205,-7.1258,-7.125,-7.1277,-7.126,-7.1253,-7.1238,-7.125,-7.1263,-7.139,-7.149,-7.1289,-7.1296,-7.1724,-7.1735,-7.1745,-7.1922,0,0,0,0,0,0,-7.1114,-7.114,-7.121,-7.1217,-7.1237,-7.1411,-7.1264,-7.1256,-7.1292,-7.1276,-7.129,-7.1285,-7.1246,-7.1379,-7.1398,-7.1497,-7.1303,-7.1714,-7.1729,-7.1741,-7.1907,-7.1937,-7.1963,0,0,0,0,0,-7.1107,-7.1256,-7.1214,-7.1234,-7.1323,-7.1417,-7.1428,-7.1381,-7.1301,-7.137,-7.1359,-7.1285,-7.1476,-7.1393,-7.1413,-7.1517,-7.1708,-7.1725,-7.174,-7.1894,-7.1931,-7.1962,0,0,0,0,0,0,-7.1258,-7.1256,-7.1209,-7.1365,-7.1393,-7.1394,-7.1479,-7.1422,-7.1472,-7.1455,-7.1393,-7.1397,-7.1536,-7.1538,-7.1446,-7.1694,-7.1578,-7.1599,-7.1688,-7.1723,-7.1751,-7.1747,-7.131,0,0,0,0,0,-7.131,-7.1388,-7.1381,-7.1519,-7.1536,-7.1506,-7.1545,-7.1507,-7.1532,-7.1543,-7.1541,-7.1568,-7.1633,-7.1678,-7.1737,-7.1906,-7.1908,-7.1988,-7.2016,-7.2039,-7.2058,-7.2149,-7.2185,-7.1802,-7.1801,-7.1801,0,0,-7.1417,-7.1426,-7.1478,-7.155,-7.1567,-7.1649,-7.1517,-7.1608,-7.1667,-7.1556,-7.1676,-7.1676,-7.1702,-7.1851,-7.1916,-7.1857,-7.2165,-7.206,-7.2079,-7.2085,-7.217,-7.2206,-7.2238,-7.1812,-7.181,-7.1809,0,0,-7.1655,-7.1669,-7.1787,-7.1807,-7.1836,-7.1815,-7.1844,-7.1854,-7.185,-7.197,-7.1889,-7.1958,-7.2073,-7.2095,-7.2121,-7.2371,-7.2305,-7.2391,-7.2539,-7.2628,-7.2658,-7.2685,-7.2775,-7.2808,-7.241,-7.2411,-7.2411,0,-7.1784,-7.1905,-7.1854,-7.1952,-7.1987,-7.1892,-7.2011,-7.2032,-7.2078,-7.2104,-7.2038,-7.2181,-7.2191,-7.2345,-7.2407,-7.243,-7.2461,-7.239,-7.2658,-7.2685,-7.2708,-7.2794,-7.2827,-7.2421,-7.242,-7.2419,-7.2418,0,-7.2063,-7.2149,-7.224,-7.229,-7.2334,-7.2442,-7.2407,-7.2458,-7.2417,-7.2403,-7.2527,-7.2537,-7.2598,-7.2631,-7.259,-7.278,-7.2743,-7.2669,-7.255,-7.2756,-7.2835,-7.2867,-7.2436,-7.2432,-7.2429,-7.2427,0,0,-7.2396,-7.2419,-7.2453,-7.2475,-7.2501,-7.2565,-7.2669,-7.273,-7.2776,-7.2811,-7.2897,-7.2997,-7.293,-7.296,-7.2921,-7.2999,-7.3198,-7.2915,-7.2915,-7.2968,-7.3409,-7.3465,-7.3504,-7.3154,-7.316,-7.3165,-7.3407,0,-7.2632,-7.2812,-7.2771,-7.2948,-7.3027,-7.2939,-7.303,-7.3055,-7.3046,-7.311,-7.3098,-7.3171,-7.3076,-7.3094,-7.3168,-7.3158,-7.3285,-7.314,-7.3233,-7.3237,-7.3231,-7.3545,-7.3604,-7.3832,-7.3437,-7.3442,-7.3446,0,-7.293,-7.298,-7.3167,-7.3182,-7.3213,-7.3296,-7.335,-7.3412,-7.3439,-7.3427,-7.3463,-7.3409,-7.3511,-7.3392,-7.3533,-7.3435,-7.347,-7.3472,-7.3479,-7.3487,-7.3355,-7.3561,-7.3903,-7.3938,-7.3494,-7.349,-7.3487,0,-7.3156,-7.327,-7.3396,-7.3418,-7.3438,-7.3498,-7.3509,-7.353,-7.357,-7.3617,-7.3642,-7.37,-7.3732,-7.3777,-7.374,-7.3657,-7.3888,-7.3765,-7.388,-7.3881,-7.3932,-7.393,-7.4286,-7.3955,-7.3954,-7.3954,-7.3953,0,-7.3424,-7.3542,-7.3499,-7.3577,-7.3706,-7.3657,-7.3786,-7.3787,-7.3806,-7.3882,-7.3809,-7.3882,-7.3829,-7.3897,-7.3868,-7.399,-7.4004,-7.3997,-7.3988,-7.4004,-7.4005,-7.4027,-7.401,-7.3963,-7.3961,-7.3959,-7.3957,0,-7.3698,-7.3674,-7.3807,-7.3816,-7.3821,-7.3917,-7.3924,-7.3996,-7.3982,-7.408,-7.4099,-7.4077,-7.4154,-7.4122,-7.4202,-7.4183,-7.4339,-7.4309,-7.4331,-7.4324,-7.4441,-7.4431,-7.4824,-7.4873,-7.451,-7.4513,-7.4516,0,-7.3871,-7.396,-7.398,-7.4027,-7.4044,-7.412,-7.4162,-7.4117,-7.4163,-7.4202,-7.427,-7.4341,-7.4395,-7.4522,-7.4512,-7.4573,-7.4544,-7.4678,-7.4553,-7.4567,-7.4548,-7.4544,-7.4553,-7.4703,-7.4707,-7.4711,-7.4714,0,-7.4181,-7.4165,-7.4229,-7.4291,-7.4343,-7.4388,-7.4426,-7.4469,-7.4426,-7.4481,-7.456,-7.4603,-7.4686,-7.4758,-7.4813,-7.4822,-7.4762,-7.4753,-7.4783,-7.4801,-7.4811,-7.4808,-7.44,-7.4744,-7.4741,-7.4739,-7.4737,-7.4736,-7.441,-7.4486,-7.4513,-7.4587,-7.4612,-7.4651,-7.472,-7.4716,-7.4782,-7.4848,-7.4817,-7.4909,-7.4934,-7.5002,-7.5021,-7.5091,-7.5038,-7.5082,-7.5093,-7.5104,-7.5121,-7.48,-7.5101,-7.51,-7.5099,-7.5098,-7.5097,0,-7.4717,-7.4731,-7.48,-7.4858,-7.4917,-7.4856,-7.4896,-7.4949,-7.5032,-7.5062,-7.5118,-7.5209,-7.5279,-7.5276,-7.534,-7.5397,-7.5371,-7.5415,-7.5411,-7.5415,-7.5163,-7.5131,-7.5436,-7.5436,-7.5436,-7.5435,-7.5435,-7.5435,-7.4884,-7.501,-7.4998,-7.5136,-7.5148,-7.524,-7.5268,-7.5303,-7.5327,-7.5433,-7.5492,-7.549,-7.5507,-7.5572,-7.5633,-7.563,-7.5657,-7.5713,-7.57,-7.5465,-7.5432,-7.54,-7.537,-7.5719,-7.5719,-7.5945,-7.5947,-7.5949]}]]